Tracking 28790 objects as of 19-Apr-2024
HD Live streaming from Space Station
objects crossing your sky now

SL-8 DEB

Track SL-8 DEB now!
10-day predictions


NORAD ID: 21249
Int'l Code: 1991-009BG
Perigee: 1,491.2 km
Apogee: 1,688.3 km
Inclination: 74.1 °
Period: 117.8 minutes
Semi major axis: 7960 km
RCS: 0.1298 m2 (medium)
Launch date: February 12, 1991
Source: Commonwealth of Independent States (former USSR) (CIS)
Launch site: PLESETSK MISSILE AND SPACE COMPLEX (PKMTR)

Note: This is SATELLITE DEBRIS
Your satellite tracking list
Your tracking list is empty




NASA's NSSDC Master Catalog

Two Line Element Set (TLE):
1 21249U 91009BG  24109.89715122  .00000075  00000-0  82459-3 0  9991
2 21249  74.0715  70.6251 0123763 219.8102 208.4885 12.22285717477505
Source of the keplerian elements: AFSPC